Location: Newark
(47.0347°N, 8.5803°E)
Time: 11:34:28
(UTC+00:00)

ISS - Visible Passes

Search period start: 13 November 2019 00:00
Search period end: 23 November 2019 00:00
Orbit: 412 x 421 km, 51.6° (Epoch: 13 November)

Date Brightness Start Highest point End Pass type
(mag) Time Alt. Az. Time Alt. Az. Time Alt. Az.
13 Nov -1.4 04:48:32 13° SSW 04:48:32 13° SSW 04:49:27 10° SSW visible
21 Nov -1.1 18:14:58 10° SSW 18:15:39 15° SSW 18:15:39 15° SSW visible
22 Nov -2.2 17:27:01 10° SSW 17:29:25 22° SSE 17:29:25 22° SSE visible
